GW1627 Weather Reports


Display with metric or nautical units.
time (UTC)temp
F
wind
direction
speed
MPH
gust
MPH
rain 1hr
in
rain 24hr
in
rain mn
in
humidity
%
barometer
mb
20260503235546 68 282 3.0 10.0 0.00 0.00 0.00 40 1003.4
20260503235047 69 281 3.0 10.0 0.00 0.00 0.00 40 1003.2
20260503234558 69 259 2.0 10.0 0.00 0.00 0.00 41 1003.1
20260503234047 69 288 1.0 10.0 0.00 0.00 0.00 43 1003.2
20260503233549 69 281 3.0 10.0 0.00 0.00 0.00 42 1003.2
20260503233049 69 298 2.0 10.0 0.00 0.00 0.00 43 1003.3
20260503232548 69 286 4.0 10.0 0.00 0.00 0.00 42 1003.2
20260503232048 70 296 3.0 8.0 0.00 0.00 0.00 42 1003.3
20260503231553 70 281 2.0 11.0 0.00 0.00 0.00 41 1003.3
20260503231048 70 283 3.0 11.0 0.00 0.00 0.00 42 1003.3
20260503230548 70 285 3.0 11.0 0.00 0.00 0.00 43 1003.5
20260503230110 70 303 4.0 11.0 0.00 0.00 0.00 40 1003.4
20260503225543 70 284 5.0 13.0 0.00 0.00 0.00 40 1003.6
20260503225047 70 312 7.0 14.0 0.00 0.00 0.00 40 1003.5
20260503224556 70 311 7.0 14.0 0.00 0.00 0.00 38 1003.6
20260503224048 70 295 5.0 14.0 0.00 0.00 0.00 40 1003.6
20260503223549 70 290 6.0 13.0 0.00 0.00 0.00 44 1003.6
20260503223053 70 329 4.0 10.0 0.00 0.00 0.00 41 1003.6
20260503222548 70 273 3.0 11.0 0.00 0.00 0.00 44 1003.6
20260503222048 70 255 5.0 13.0 0.00 0.00 0.00 44 1003.7
20260503221604 71 284 4.0 13.0 0.00 0.00 0.00 44 1003.8
20260503221047 71 277 5.0 13.0 0.00 0.00 0.00 43 1003.5
20260503220548 71 253 2.0 11.0 0.00 0.00 0.00 41 1003.7
20260503220111 71 279 3.0 11.0 0.00 0.00 0.00 43 1003.7
20260503215548 71 277 3.0 9.0 0.00 0.00 0.00 45 1003.8
20260503215048 71 281 5.0 10.0 0.00 0.00 0.00 43 1003.7
20260503214558 71 263 2.0 13.0 0.00 0.00 0.00 46 1003.8
20260503214044 71 286 3.0 13.0 0.00 0.00 0.00 44 1003.8
20260503213549 71 218 4.0 12.0 0.00 0.00 0.00 45 1003.8
20260503213053 70 282 3.0 10.0 0.00 0.00 0.00 47 1003.8
20260503212550 70 297 2.0 10.0 0.00 0.00 0.00 46 1003.7
20260503212046 70 304 3.0 9.0 0.00 0.00 0.00 43 1003.9
20260503211553 70 265 1.0 10.0 0.00 0.00 0.00 50 1003.9
20260503211047 70 264 4.0 12.0 0.00 0.00 0.00 45 1004.0
20260503210548 70 257 4.0 12.0 0.00 0.00 0.00 47 1004.0
20260503210056 70 308 2.0 11.0 0.00 0.00 0.00 48 1004.1
20260503205547 70 284 4.0 11.0 0.00 0.00 0.00 47 1004.2
20260503205048 69 300 3.0 11.0 0.00 0.00 0.00 49 1004.1
20260503204555 69 244 4.0 11.0 0.00 0.00 0.00 43 1004.1
20260503204047 69 226 3.0 16.0 0.00 0.00 0.00 49 1004.2
20260503203544 68 269 5.0 16.0 0.00 0.00 0.00 49 1004.4
20260503203108 68 263 5.0 16.0 0.00 0.00 0.00 48 1004.6
20260503202547 68 247 7.0 16.0 0.00 0.00 0.00 47 1004.5
20260503202048 68 232 7.0 16.0 0.00 0.00 0.00 46 1004.5
20260503201551 68 238 4.0 15.0 0.00 0.00 0.00 46 1004.5
20260503201047 68 279 3.0 13.0 0.00 0.00 0.00 49 1004.7
20260503200548 68 196 5.0 11.0 0.00 0.00 0.00 46 1004.8
20260503200049 68 360 3.0 12.0 0.00 0.00 0.00 51 1004.8
20260503195548 67 266 4.0 12.0 0.00 0.00 0.00 53 1005.1
20260503195047 67 288 6.0 13.0 0.00 0.00 0.00 50 1005.0
20260503194553 67 286 6.0 13.0 0.00 0.00 0.00 49 1005.2
20260503194047 67 263 4.0 15.0 0.00 0.00 0.00 46 1005.1
20260503193547 67 269 5.0 15.0 0.00 0.00 0.00 51 1005.3
20260503193054 66 255 4.0 12.0 0.00 0.00 0.00 51 1005.4
20260503192547 66 360 5.0 15.0 0.00 0.00 0.00 49 1005.6
20260503192047 66 216 5.0 18.0 0.00 0.00 0.00 51 1005.6
20260503191556 66 360 5.0 18.0 0.00 0.00 0.00 48 1005.6
20260503191047 66 360 6.0 16.0 0.00 0.00 0.00 46 1005.6
20260503190546 66 360 4.0 16.0 0.00 0.00 0.00 49 1005.6
20260503185548 66 360 5.0 12.0 0.00 0.00 0.00 52 1005.5
20260503185048 66 360 4.0 19.0 0.00 0.00 0.00 51 1005.7
20260503184549 65 360 5.0 19.0 0.00 0.00 0.00 52 1005.7
20260503184050 64 360 9.0 19.0 0.00 0.00 0.00 52 1005.8
20260503183548 65 360 9.0 16.0 0.00 0.00 0.00 48 1005.8
20260503183053 65 180 5.0 20.0 0.00 0.00 0.00 51 1005.8
20260503182548 65 200 4.0 20.0 0.00 0.00 0.00 49 1005.8
20260503182048 64 360 7.0 18.0 0.00 0.00 0.00 47 1005.8
20260503181559 64 360 7.0 17.0 0.00 0.00 0.00 50 1005.7
20260503181047 65 360 4.0 17.0 0.00 0.00 0.00 53 1005.7
20260503180547 64 360 7.0 19.0 0.00 0.00 0.00 50 1005.9
20260503180054 64 360 4.0 19.0 0.00 0.00 0.00 52 1005.9
20260503175546 63 252 10.0 19.0 0.00 0.00 0.00 49 1006.0
20260503175047 63 192 10.0 19.0 0.00 0.00 0.00 47 1006.0
20260503174550 63 360 7.0 17.0 0.00 0.00 0.00 51 1006.1
20260503174048 63 360 7.0 21.0 0.00 0.00 0.00 51 1006.2
20260503173548 63 360 7.0 21.0 0.00 0.00 0.00 51 1006.3
20260503173050 63 360 9.0 18.0 0.00 0.00 0.00 49 1006.4
20260503172548 63 222 7.0 21.0 0.00 0.00 0.00 49 1006.4
20260503172047 62 360 10.0 21.0 0.00 0.00 0.00 52 1006.4
20260503171549 62 227 8.0 18.0 0.00 0.00 0.00 51 1006.5
20260503171048 61 247 7.0 20.0 0.00 0.00 0.00 54 1006.5
20260503170548 61 360 9.0 20.0 0.00 0.00 0.00 52 1006.6
20260503150546 56 360 9.0 20.0 0.00 0.00 0.00 62 1008.5
20260503131046 50 360 8.0 19.0 0.00 0.00 0.00 70 1009.6
20260503130548 50 360 8.0 17.0 0.00 0.00 0.00 69 1009.7
20260503110548 48 360 2.0 11.0 0.00 0.00 0.00 59 1010.0
20260503100105 49 229 5.0 15.0 0.00 0.00 0.00 54 1010.2
20260503081600 47 360 4.0 11.0 0.00 0.00 0.00 55 1011.2
20260503081048 47 360 3.0 11.0 0.00 0.00 0.00 55 1011.2
20260503080547 47 360 4.0 11.0 0.00 0.00 0.00 55 1011.3
20260503072544 46 360 3.0 13.0 0.00 0.00 0.00 56 1011.4
20260503072048 46 360 2.0 8.0 0.00 0.00 0.00 56 1011.3
20260503071559 46 360 3.0 9.0 0.00 0.00 0.00 56 1011.4
20260503071047 46 261 3.0 9.0 0.00 0.00 0.00 56 1011.4
20260503070550 46 360 1.0 8.0 0.00 0.00 0.00 56 1011.5
20260503060115 48 246 2.0 10.0 0.00 0.00 0.00 51 1011.9
20260503055047 48 259 3.0 14.0 0.00 0.00 0.00 50 1012.0
20260503054602 48 194 2.0 10.0 0.00 0.00 0.00 51 1012.0
20260503054047 48 279 2.0 10.0 0.00 0.00 0.00 50 1012.0
20260503053548 48 225 2.0 10.0 0.00 0.00 0.00 50 1012.0
20260503053052 49 266 2.0 12.0 0.00 0.00 0.00 50 1012.0
20260503052551 49 258 3.0 12.0 0.00 0.00 0.00 50 1012.1
20260503052046 49 242 2.0 12.0 0.00 0.00 0.00 49 1012.2
20260503051555 49 360 3.0 12.0 0.00 0.00 0.00 49 1012.2
20260503051047 49 253 4.0 9.0 0.00 0.00 0.00 49 1012.3
20260503050547 49 218 3.0 10.0 0.00 0.00 0.00 49 1012.3
20260503050053 49 222 3.0 10.0 0.00 0.00 0.00 48 1012.3
20260503045544 48 242 3.0 9.0 0.00 0.00 0.00 49 1012.3
20260503045049 48 227 3.0 9.0 0.00 0.00 0.00 49 1012.4
20260503044557 48 223 4.0 9.0 0.00 0.00 0.00 49 1012.4
20260503044049 48 254 3.0 10.0 0.00 0.00 0.00 49 1012.4
20260503043549 48 174 3.0 10.0 0.00 0.00 0.00 49 1012.4
20260503043055 48 264 3.0 10.0 0.00 0.00 0.00 49 1012.5
20260503042547 48 360 4.0 10.0 0.00 0.00 0.00 49 1012.5
20260503042048 48 228 3.0 9.0 0.00 0.00 0.00 49 1012.8
20260503041553 48 243 2.0 8.0 0.00 0.00 0.00 49 1012.8
20260503041046 48 221 2.0 7.0 0.00 0.00 0.00 49 1012.9
20260503040546 48 360 2.0 9.0 0.00 0.00 0.00 49 1012.8
20260503040055 48 360 2.0 9.0 0.00 0.00 0.00 50 1012.8
20260503035547 47 360 3.0 9.0 0.00 0.00 0.00 49 1013.0
20260503035049 47 221 3.0 8.0 0.00 0.00 0.00 50 1013.0
20260503034552 47 360 1.0 9.0 0.00 0.00 0.00 51 1013.0
20260503034047 47 360 1.0 9.0 0.00 0.00 0.00 51 1013.1
20260503033551 47 236 2.0 9.0 0.00 0.00 0.00 50 1013.2
20260503033058 48 208 1.0 8.0 0.00 0.00 0.00 50 1013.2
20260503032550 48 0 1.0 8.0 0.00 0.00 0.00 49 1013.2
20260503032049 48 0 1.0 8.0 0.00 0.00 0.00 50 1013.3
20260503031555 48 0 2.0 10.0 0.00 0.00 0.00 49 1013.3
20260503031048 48 360 2.0 10.0 0.00 0.00 0.00 48 1013.3
20260503030547 48 360 3.0 8.0 0.00 0.00 0.00 48 1013.3
20260503030100 48 360 2.0 8.0 0.00 0.00 0.00 48 1013.4
20260503025548 48 0 2.0 6.0 0.00 0.00 0.00 49 1013.5
20260503025048 48 360 2.0 6.0 0.00 0.00 0.00 50 1013.5
20260503024556 47 200 1.0 6.0 0.00 0.00 0.00 50 1013.5
20260503024048 47 264 1.0 6.0 0.00 0.00 0.00 51 1013.5
20260503023548 47 360 1.0 6.0 0.00 0.00 0.00 51 1013.6
20260503023057 47 270 0.0 5.0 0.00 0.00 0.00 53 1013.5
20260503022547 47 0 1.0 5.0 0.00 0.00 0.00 53 1013.5
20260503022048 48 0 1.0 5.0 0.00 0.00 0.00 53 1013.5
20260503021558 48 254 1.0 5.0 0.00 0.00 0.00 52 1013.6
20260503021048 48 0 1.0 5.0 0.00 0.00 0.00 52 1013.5
20260503020549 48 0 0.0 4.0 0.00 0.00 0.00 52 1013.5
20260503020056 48 0 0.0 4.0 0.00 0.00 0.00 50 1013.6
20260503015548 48 263 0.0 3.0 0.00 0.00 0.00 50 1013.5
20260503015046 48 263 0.0 2.0 0.00 0.00 0.00 52 1013.5
20260503014559 48 0 0.0 3.0 0.00 0.00 0.00 52 1013.5
20260503014048 49 0 0.0 3.0 0.00 0.00 0.00 50 1013.4
20260503013547 49 0 0.0 3.0 0.00 0.00 0.00 50 1013.4
20260503013056 49 0 0.0 1.0 0.00 0.00 0.00 51 1013.4
20260503012550 49 0 0.0 1.0 0.00 0.00 0.00 50 1013.4
20260503012047 49 0 0.0 1.0 0.00 0.00 0.00 50 1013.3
20260503011551 50 0 0.0 2.0 0.00 0.00 0.00 49 1013.4
20260503011047 50 0 0.0 2.0 0.00 0.00 0.00 49 1013.4
20260503010548 51 0 0.0 2.0 0.00 0.00 0.00 48 1013.4
20260503010052 51 0 0.0 4.0 0.00 0.00 0.00 48 1013.5
20260503005547 51 0 0.0 4.0 0.00 0.00 0.00 47 1013.4
20260503005051 52 360 0.0 3.0 0.00 0.00 0.00 47 1013.4
20260503004551 53 360 0.0 3.0 0.00 0.00 0.00 46 1013.4
20260503004047 53 0 1.0 3.0 0.00 0.00 0.00 45 1013.4
20260503003546 54 304 1.0 3.0 0.00 0.00 0.00 44 1013.4
20260503003053 55 360 1.0 5.0 0.00 0.00 0.00 46 1013.4
20260503002548 55 360 1.0 6.0 0.00 0.00 0.00 44 1013.4
20260503002048 55 0 1.0 6.0 0.00 0.00 0.00 43 1013.4
20260503001552 56 270 1.0 4.0 0.00 0.00 0.00 43 1013.5
20260503001049 56 267 1.0 6.0 0.00 0.00 0.00 42 1013.6
20260503000545 56 360 1.0 6.0 0.00 0.00 0.00 42 1013.6